map of CAW home
CAW - Airport
Location
City:  Campos dos Goitacazes, Rio de Janeiro, Brazil
Name:Bartolomeu Lysandro
ICAO:SBCP
IATA:CAW

Details
Type:Airport (Aerodrome, Airfield)
Use:Public/Civil
Latitude:2141'54"S (-21.698332)
Longitude:4118'06"W (-41.301668)
Datum:WGS 1984
Elevation:57 ft (17 m)
Variation:23.44W (WMM2015 magnetic declination)
-0.08 annual change
Runways:1
Longest:5066 × 148 ft (1544 × 45 m), paved

Time
Time Zone:UTC-3 (DST-2)
Local Time:

Weather
METAR:SBCP 230100Z 16004KT CAVOK 20/18 Q1024
TAF:SBCP 230830Z 2312/2324 21005KT 9999 SCT015 TX26/2317Z TN21/2324Z
BECMG 2315/2317 09010KT
BECMG 2321/2323 16005KT
RMK PHI

Related Locations
Nearby:
Farthest:IWO: 12166 mi / 19579 km
Iwo Jima [Iwo Jima AB], Iwo Jima Island, 13, JP

Find:

   beyond  
but within

Other Information
Maps:
NOTAMs:
Links:
Sources:

  
flag of Brazil
flag of Rio de Janeiro
  

Sectional Chart

Flight Planning
at skyvector.com

Satellite Image

Google Maps Satellite view

 

Copyright © 2004-2017 Karl L. Swartz. All rights reserved.
The Great Circle Mapper name and logo are trademarks of the Great Circle Mapper.
All other trademarks mentioned herein belong to their respective owners.
Please see credits for attibutions and further copyright information.

  Follow gcmap on Facebook Follow gcmap on Twitter Follow gcmap on Google+ GCmap on LinkedIn

hCard Microformat

Geo Microformat